Time,TemperatureF,DewpointF,PressureIn,WindDirection,WindDirectionDegrees,WindSpeedMPH,WindSpeedGustMPH,Humidity,HourlyPrecipIn,Conditions,Clouds,dailyrainin,SoftwareType,DateUTC
2013-03-13 00:02:00,32.0,21.0,-100.00,North,5,11.0,18.0,64,-99.99,,,-99.99,,2013-03-13 05:02:00,
2013-03-13 00:12:00,31.0,21.0,-100.00,NNE,15,11.0,19.0,65,-99.99,,,-99.99,,2013-03-13 05:12:00,
2013-03-13 00:32:00,31.0,21.0,-100.00,North,10,12.0,20.0,66,-99.99,,,-99.99,,2013-03-13 05:32:00,
2013-03-13 00:42:00,31.0,21.0,-100.00,North,5,14.0,21.0,67,-99.99,,,-99.99,,2013-03-13 05:42:00,
2013-03-13 01:02:00,30.0,21.0,-100.00,North,10,11.0,16.0,68,-99.99,,,-99.99,,2013-03-13 06:02:00,
2013-03-13 01:12:00,30.0,21.0,-100.00,North,355,8.0,14.0,69,-99.99,,,-99.99,,2013-03-13 06:12:00,
2013-03-13 01:32:00,29.0,21.0,-100.00,North,355,6.0,9.0,72,-99.99,,,-99.99,,2013-03-13 06:32:00,
2013-03-13 01:42:00,29.0,21.0,-100.00,North,0,6.0,9.0,73,-99.99,,,-99.99,,2013-03-13 06:42:00,
2013-03-13 02:12:00,28.0,21.0,-100.00,NW,320,3.0,6.0,75,-99.99,,,-99.99,,2013-03-13 07:12:00,
2013-03-13 02:32:00,26.0,20.0,-100.00,WSW,255,4.0,6.0,76,-99.99,,,-99.99,,2013-03-13 07:32:00,
2013-03-13 02:42:00,26.0,20.0,-100.00,West,265,4.0,5.0,77,-99.99,,,-99.99,,2013-03-13 07:42:00,
2013-03-13 03:03:00,26.0,21.0,-100.00,WNW,290,5.0,6.0,78,-99.99,,,-99.99,,2013-03-13 08:03:00,
2013-03-13 03:12:00,26.0,21.0,-100.00,WNW,300,6.0,8.0,79,-99.99,,,-99.99,,2013-03-13 08:12:00,
2013-03-13 04:02:00,27.0,21.0,-100.00,WNW,285,6.0,9.0,79,-99.99,,,-99.99,,2013-03-13 09:02:00,
2013-03-13 04:12:00,26.0,20.0,-100.00,West,270,5.0,8.0,79,-99.99,,,-99.99,,2013-03-13 09:12:00,
2013-03-13 04:32:00,27.0,21.0,-100.00,WNW,295,8.0,10.0,80,-99.99,,,-99.99,,2013-03-13 09:32:00,
2013-03-13 04:42:00,26.0,21.0,-100.00,WNW,300,8.0,11.0,80,-99.99,,,-99.99,,2013-03-13 09:42:00,
2013-03-13 05:02:00,26.0,21.0,-100.00,NW,310,8.0,11.0,81,-99.99,,,-99.99,,2013-03-13 10:02:00,
2013-03-13 05:12:00,26.0,21.0,-100.00,NW,310,7.0,11.0,80,-99.99,,,-99.99,,2013-03-13 10:12:00,
2013-03-13 05:32:00,26.0,20.0,-100.00,NNW,335,5.0,9.0,80,-99.99,,,-99.99,,2013-03-13 10:32:00,
2013-03-13 05:42:00,26.0,21.0,-100.00,NNW,330,4.0,8.0,80,-99.99,,,-99.99,,2013-03-13 10:42:00,
2013-03-13 06:02:00,26.0,21.0,-100.00,NW,320,5.0,6.0,81,-99.99,,,-99.99,,2013-03-13 11:02:00,
2013-03-13 06:12:00,26.0,21.0,-100.00,NW,315,6.0,7.0,81,-99.99,,,-99.99,,2013-03-13 11:12:00,
2013-03-13 06:32:00,25.0,20.0,-100.00,NNW,335,5.0,7.0,81,-99.99,,,-99.99,,2013-03-13 11:32:00,
2013-03-13 07:32:00,25.0,20.0,-100.00,NNW,330,7.0,9.0,82,-99.99,,,-99.99,,2013-03-13 12:32:00,
2013-03-13 07:42:00,25.0,20.0,-100.00,North,355,7.0,9.0,82,-99.99,,,-99.99,,2013-03-13 12:42:00,
2013-03-13 08:02:00,24.0,20.0,-100.00,NW,320,4.0,6.0,83,-99.99,,,-99.99,,2013-03-13 13:02:00,
2013-03-13 08:12:00,25.0,20.0,-100.00,NW,315,5.0,6.0,83,-99.99,,,-99.99,,2013-03-13 13:12:00,
2013-03-13 08:33:00,24.0,20.0,-100.00,NW,320,6.0,8.0,83,-99.99,,,-99.99,,2013-03-13 13:33:00,
2013-03-13 08:43:00,24.0,20.0,-100.00,NW,320,6.0,8.0,83,-99.99,,,-99.99,,2013-03-13 13:43:00,
2013-03-13 09:02:00,25.0,20.0,-100.00,NW,320,5.0,10.0,83,-99.99,,,-99.99,,2013-03-13 14:02:00,
2013-03-13 09:12:00,25.0,21.0,-100.00,North,0,3.0,7.0,83,-99.99,,,-99.99,,2013-03-13 14:12:00,
2013-03-13 09:33:00,26.0,22.0,-100.00,North,350,8.0,9.0,83,-99.99,,,-99.99,,2013-03-13 14:33:00,
2013-03-13 09:42:00,27.0,22.0,-100.00,NNW,335,8.0,11.0,82,-99.99,,,-99.99,,2013-03-13 14:42:00,
2013-03-13 10:03:00,27.0,22.0,-100.00,North,355,7.0,12.0,81,-99.99,,,-99.99,,2013-03-13 15:03:00,
2013-03-13 10:12:00,27.0,22.0,-100.00,North,5,7.0,11.0,80,-99.99,,,-99.99,,2013-03-13 15:12:00,
2013-03-13 10:32:00,29.0,22.0,-100.00,North,0,7.0,11.0,77,-99.99,,,-99.99,,2013-03-13 15:32:00,
2013-03-13 11:03:00,29.0,22.0,-100.00,North,355,9.0,11.0,75,-99.99,,,-99.99,,2013-03-13 16:03:00,
2013-03-13 11:32:00,30.0,22.0,-100.00,NW,315,6.0,11.0,70,-99.99,,,-99.99,,2013-03-13 16:32:00,
2013-03-13 11:42:00,31.0,22.0,-100.00,WNW,295,9.0,11.0,69,-99.99,,,-99.99,,2013-03-13 16:42:00,
2013-03-13 12:02:00,33.0,23.0,-100.00,WNW,285,7.0,13.0,67,-99.99,,,-99.99,,2013-03-13 17:02:00,
2013-03-13 12:12:00,33.0,22.0,-100.00,NW,320,9.0,14.0,65,-99.99,,,-99.99,,2013-03-13 17:12:00,
2013-03-13 12:42:00,35.0,22.0,-100.00,NW,320,6.0,12.0,61,-99.99,,,-99.99,,2013-03-13 17:42:00,
2013-03-13 13:02:00,36.0,23.0,-100.00,ESE,120,1.0,11.0,58,-99.99,,,-99.99,,2013-03-13 18:02:00,
2013-03-13 13:12:00,36.0,23.0,-100.00,North,350,9.0,11.0,58,-99.99,,,-99.99,,2013-03-13 18:12:00,
2013-03-13 13:33:00,37.0,23.0,-100.00,North,5,4.0,7.0,56,-99.99,,,-99.99,,2013-03-13 18:33:00,
2013-03-13 13:42:00,37.0,23.0,-100.00,NNW,335,6.0,9.0,55,-99.99,,,-99.99,,2013-03-13 18:42:00,
2013-03-13 14:02:00,38.0,22.0,-100.00,NNW,340,3.0,8.0,52,-99.99,,,-99.99,,2013-03-13 19:02:00,
2013-03-13 14:12:00,39.0,23.0,-100.00,West,270,5.0,7.0,51,-99.99,,,-99.99,,2013-03-13 19:12:00,
2013-03-13 14:43:00,40.0,22.0,-100.00,SSW,205,2.0,6.0,49,-99.99,,,-99.99,,2013-03-13 19:43:00,
2013-03-13 14:53:00,40.0,22.0,-100.00,SSW,205,2.0,6.0,49,-99.99,,,-99.99,,2013-03-13 19:53:00,
2013-03-13 15:02:00,40.0,22.0,-100.00,SSW,205,2.0,6.0,49,-99.99,,,-99.99,,2013-03-13 20:02:00,
2013-03-13 15:12:00,41.0,23.0,-100.00,WSW,245,2.0,6.0,48,-99.99,,,-99.99,,2013-03-13 20:12:00,
2013-03-13 15:32:00,41.0,23.0,-100.00,South,170,0.0,5.0,48,-99.99,,,-99.99,,2013-03-13 20:32:00,
2013-03-13 16:02:00,42.0,22.0,-100.00,ESE,115,3.0,6.0,45,-99.99,,,-99.99,,2013-03-13 21:02:00,
2013-03-13 16:12:00,42.0,22.0,-100.00,SE,130,4.0,11.0,44,-99.99,,,-99.99,,2013-03-13 21:12:00,
2013-03-13 16:22:00,42.0,22.0,-100.00,SE,130,4.0,11.0,44,-99.99,,,-99.99,,2013-03-13 21:22:00,
2013-03-13 16:33:00,42.0,22.0,-100.00,SE,130,4.0,11.0,44,-99.99,,,-99.99,,2013-03-13 21:33:00,
2013-03-13 16:42:00,43.0,22.0,-100.00,South,170,4.0,14.0,42,-99.99,,,-99.99,,2013-03-13 21:42:00,
2013-03-13 16:52:00,43.0,22.0,-100.00,South,170,4.0,14.0,42,-99.99,,,-99.99,,2013-03-13 21:52:00,
2013-03-13 17:02:00,44.0,22.0,-100.00,South,190,6.0,11.0,41,-99.99,,,-99.99,,2013-03-13 22:02:00,
2013-03-13 17:12:00,44.0,22.0,-100.00,South,190,6.0,11.0,41,-99.99,,,-99.99,,2013-03-13 22:12:00,
2013-03-13 17:32:00,45.0,21.0,-100.00,SSW,195,6.0,13.0,38,-99.99,,,-99.99,,2013-03-13 22:32:00,
2013-03-13 17:42:00,45.0,20.0,-100.00,SSW,195,4.0,11.0,36,-99.99,,,-99.99,,2013-03-13 22:42:00,
2013-03-13 18:12:00,45.0,19.0,-100.00,SE,145,8.0,11.0,35,-99.99,,,-99.99,,2013-03-13 23:12:00,
2013-03-13 18:32:00,46.0,20.0,-100.00,SSW,200,6.0,11.0,36,-99.99,,,-99.99,,2013-03-13 23:32:00,
2013-03-13 18:42:00,46.0,20.0,-100.00,SSW,195,7.0,11.0,36,-99.99,,,-99.99,,2013-03-13 23:42:00,
2013-03-13 19:02:00,46.0,20.0,-100.00,SSE,165,6.0,10.0,35,-99.99,,,-99.99,,2013-03-14 00:02:00,
2013-03-13 19:12:00,45.0,20.0,-100.00,South,190,6.0,11.0,36,-99.99,,,-99.99,,2013-03-14 00:12:00,
2013-03-13 19:32:00,45.0,19.0,-100.00,SSE,165,7.0,10.0,36,-99.99,,,-99.99,,2013-03-14 00:32:00,
2013-03-13 19:42:00,45.0,19.0,-100.00,SSE,165,7.0,10.0,36,-99.99,,,-99.99,,2013-03-14 00:42:00,
2013-03-13 20:02:00,44.0,20.0,-100.00,South,170,5.0,9.0,38,-99.99,,,-99.99,,2013-03-14 01:02:00,
2013-03-13 20:12:00,43.0,19.0,-100.00,SSE,150,4.0,8.0,39,-99.99,,,-99.99,,2013-03-14 01:12:00,
2013-03-13 20:32:00,41.0,19.0,-100.00,SE,145,7.0,9.0,42,-99.99,,,-99.99,,2013-03-14 01:32:00,
2013-03-13 20:42:00,40.0,19.0,-100.00,SE,135,7.0,10.0,42,-99.99,,,-99.99,,2013-03-14 01:42:00,
2013-03-13 21:02:00,39.0,19.0,-100.00,SE,140,8.0,10.0,44,-99.99,,,-99.99,,2013-03-14 02:02:00,
2013-03-13 21:12:00,39.0,19.0,-100.00,SE,140,8.0,11.0,44,-99.99,,,-99.99,,2013-03-14 02:12:00,
2013-03-13 21:32:00,38.0,19.0,-100.00,SE,130,7.0,11.0,45,-99.99,,,-99.99,,2013-03-14 02:32:00,
2013-03-13 21:42:00,38.0,19.0,-100.00,SE,130,7.0,11.0,45,-99.99,,,-99.99,,2013-03-14 02:42:00,
2013-03-13 22:02:00,38.0,19.0,-100.00,SE,145,8.0,11.0,45,-99.99,,,-99.99,,2013-03-14 03:02:00,
2013-03-13 22:12:00,38.0,19.0,-100.00,SE,140,9.0,11.0,46,-99.99,,,-99.99,,2013-03-14 03:12:00,
2013-03-13 22:32:00,38.0,19.0,-100.00,SE,145,8.0,12.0,46,-99.99,,,-99.99,,2013-03-14 03:32:00,
2013-03-13 22:42:00,38.0,20.0,-100.00,SE,145,8.0,11.0,47,-99.99,,,-99.99,,2013-03-14 03:42:00,
2013-03-13 23:12:00,37.0,20.0,-100.00,SE,145,9.0,12.0,48,-99.99,,,-99.99,,2013-03-14 04:12:00,
2013-03-13 23:32:00,37.0,20.0,-100.00,SE,145,9.0,14.0,49,-99.99,,,-99.99,,2013-03-14 04:32:00,
2013-03-13 23:42:00,37.0,20.0,-100.00,SSE,155,11.0,14.0,49,-99.99,,,-99.99,,2013-03-14 04:42:00,